GW4489 Weather Reports


time (UTC)temp
F
wind
direction
speed
knots
gust
knots
rain 1hr
in
rain 24hr
in
rain mn
in
humidity
%
barometer
mb
20260504003507 57 145 0.9 1.7 0.00 0.01 0.01 51 1016.3
20260504003025 57 145 0.0 2.6 0.00 0.01 0.01 51 1016.4
20260504002503 57 145 0.9 2.6 0.00 0.01 0.01 51 1016.4
20260504002003 57 125 0.9 2.6 0.00 0.02 0.01 51 1016.4
20260504001518 58 83 0.9 1.7 0.00 0.02 0.01 50 1016.4
20260504001005 58 226 0.9 1.7 0.00 0.03 0.01 49 1016.4
20260504000506 59 226 0.9 2.6 0.00 0.04 0.01 47 1016.6
20260504000015 60 226 0.9 5.2 0.00 0.04 0.01 46 1016.7
20260503235506 61 226 1.7 5.2 0.00 0.04 0.01 44 1016.8
20260503235007 61 226 2.6 5.2 0.00 0.04 0.01 43 1017.0
20260503234520 62 238 1.7 4.3 0.00 0.04 0.01 41 1017.0
20260503234013 63 240 1.7 5.2 0.00 0.04 0.01 43 1017.1
20260503233507 63 240 1.7 5.2 0.00 0.04 0.01 41 1017.1
20260503233026 63 217 1.7 7.8 0.00 0.04 0.01 42 1017.1
20260503232508 63 231 1.7 7.8 0.00 0.04 0.01 42 1017.1
20260503232016 64 246 2.6 7.0 0.00 0.04 0.01 40 1017.1
20260503231526 64 236 1.7 6.1 0.00 0.04 0.01 43 1017.2
20260503231012 63 229 2.6 8.7 0.00 0.04 0.01 42 1017.2
20260503230503 63 224 3.5 8.7 0.00 0.04 0.01 42 1017.2
20260503230016 64 205 3.5 11.3 0.00 0.04 0.01 42 1017.1
20260503225503 64 250 2.6 11.3 0.00 0.04 0.01 42 1017.2
20260503225006 64 221 3.5 8.7 0.00 0.04 0.01 40 1017.2
20260503224518 64 211 1.7 10.4 0.00 0.04 0.01 43 1017.3
20260503224007 64 192 3.5 11.3 0.00 0.04 0.01 44 1017.4
20260503223508 64 189 6.1 11.3 0.00 0.04 0.01 41 1017.5
20260503223021 64 207 5.2 11.3 0.00 0.04 0.01 42 1017.5
20260503222508 64 218 6.1 11.3 0.00 0.04 0.01 41 1017.5
20260503222008 65 186 3.5 7.0 0.00 0.04 0.01 41 1017.6
20260503221533 65 217 1.7 6.1 0.00 0.04 0.01 44 1017.6
20260503221011 65 192 2.6 8.7 0.00 0.04 0.01 44 1017.6
20260503220509 65 252 3.5 8.7 0.00 0.04 0.01 41 1017.7
20260503220026 65 247 1.7 11.3 0.00 0.04 0.01 41 1017.7
20260503215510 64 181 2.6 11.3 0.00 0.04 0.01 44 1017.8
20260503215008 65 198 5.2 11.3 0.00 0.04 0.01 41 1017.9
20260503214516 65 215 1.7 7.0 0.00 0.04 0.01 43 1017.9
20260503214008 65 287 3.5 8.7 0.00 0.04 0.01 41 1018.0
20260503213506 64 211 5.2 8.7 0.00 0.04 0.01 42 1018.0
20260503213029 65 238 2.6 7.0 0.00 0.04 0.01 41 1018.1
20260503212508 65 233 3.5 7.0 0.00 0.04 0.01 42 1018.1
20260503212009 65 298 1.7 7.8 0.00 0.04 0.01 44 1018.2
20260503211525 65 355 3.5 7.8 0.00 0.04 0.01 39 1018.3
20260503211009 66 315 3.5 7.0 0.00 0.04 0.01 42 1018.3
20260503210509 65 242 1.7 8.7 0.00 0.04 0.01 46 1018.4
20260503210028 65 261 1.7 8.7 0.00 0.04 0.01 40 1018.4
20260503205509 65 229 4.3 8.7 0.00 0.04 0.01 43 1018.5
20260503205017 64 213 4.3 9.6 0.00 0.04 0.01 41 1018.5
20260503204528 64 193 4.3 9.6 0.00 0.04 0.01 41 1018.5
20260503204008 64 240 3.5 12.2 0.00 0.04 0.01 46 1018.6
20260503203509 63 191 3.5 12.2 0.00 0.04 0.01 44 1018.8
20260503203017 64 178 5.2 11.3 0.00 0.04 0.01 45 1018.8
20260503202509 64 275 2.6 10.4 0.00 0.04 0.01 47 1019.0
20260503202010 63 178 6.1 10.4 0.00 0.04 0.01 46 1019.1
20260503201529 64 243 4.3 10.4 0.00 0.04 0.01 48 1019.1
20260503201002 65 207 3.5 7.8 0.00 0.04 0.01 50 1019.3
20260503200503 64 233 3.5 9.6 0.00 0.04 0.01 48 1019.4
20260503200010 63 328 2.6 9.6 0.00 0.04 0.01 51 1019.5
20260503195503 62 254 2.6 12.2 0.00 0.04 0.01 45 1019.5
20260503195003 62 213 3.5 12.2 0.00 0.04 0.01 47 1019.6
20260503194510 63 190 5.2 12.2 0.00 0.04 0.01 47 1019.8
20260503194004 63 225 3.5 7.0 0.00 0.04 0.01 50 1019.9
20260503193503 62 124 4.3 8.7 0.00 0.04 0.01 53 1019.9
20260503193018 62 206 3.5 8.7 0.00 0.04 0.01 51 1020.0
20260503192503 62 220 5.2 8.7 0.00 0.04 0.01 51 1020.1
20260503192010 62 233 4.3 9.6 0.00 0.04 0.01 50 1020.1
20260503191522 63 211 5.2 9.6 0.00 0.04 0.01 53 1020.2
20260503191006 62 168 4.3 9.6 0.00 0.04 0.01 51 1020.3
20260503190507 62 155 5.2 9.6 0.00 0.04 0.01 50 1020.3
20260503190025 63 186 5.2 8.7 0.00 0.04 0.01 49 1020.3
20260503185502 61 206 1.7 11.3 0.00 0.04 0.01 54 1020.4
20260503185003 61 179 6.1 10.4 0.00 0.04 0.01 52 1020.4
20260503184509 62 236 2.6 12.2 0.00 0.04 0.01 51 1020.4
20260503184003 62 193 0.9 12.2 0.00 0.04 0.01 55 1020.5
20260503183505 61 202 5.2 11.3 0.00 0.04 0.01 57 1020.5
20260503183023 60 173 2.6 11.3 0.00 0.04 0.01 54 1020.6
20260503182503 61 132 2.6 12.2 0.00 0.04 0.01 53 1020.7
20260503182007 60 170 6.1 11.3 0.00 0.04 0.01 52 1020.9
20260503181528 60 227 6.1 11.3 0.00 0.04 0.01 53 1021.0
20260503181004 59 172 2.6 11.3 0.00 0.04 0.01 58 1021.0
20260503180507 60 212 3.5 11.3 0.00 0.04 0.01 54 1021.0
20260503180025 61 212 3.5 10.4 0.00 0.04 0.01 56 1021.0
20260503175506 60 223 1.7 8.7 0.00 0.04 0.01 57 1021.0
20260503175010 60 153 3.5 8.7 0.00 0.04 0.01 60 1021.2
20260503174523 59 239 4.3 8.7 0.00 0.04 0.01 53 1021.4
20260503174006 60 248 3.5 8.7 0.00 0.04 0.01 55 1021.4
20260503173503 60 250 0.9 7.8 0.00 0.04 0.01 55 1021.3
20260503173036 58 261 1.7 7.8 0.00 0.04 0.01 54 1021.4
20260503172502 59 254 1.7 10.4 0.00 0.04 0.01 57 1021.4
20260503172004 58 202 4.3 10.4 0.00 0.04 0.01 55 1021.5
20260503171514 58 198 2.6 8.7 0.00 0.04 0.01 53 1021.5
20260503171004 58 208 1.7 8.7 0.00 0.04 0.01 56 1021.6
20260503170505 58 236 3.5 8.7 0.00 0.04 0.01 54 1021.7
20260503151008 53 300 1.7 5.2 0.00 0.04 0.01 73 1022.6
20260503150514 54 239 2.6 5.2 0.00 0.04 0.01 80 1022.6
20260503131010 44 167 0.0 4.3 0.00 0.04 0.01 96 1022.4
20260503130509 43 169 0.9 4.3 0.00 0.04 0.01 96 1022.5
20260503110502 42 114 0.9 2.6 0.00 0.04 0.01 95 1021.0
20260503090502 43 164 0.0 0.0 0.00 0.04 0.01 94 1020.5
20260503081514 42 164 0.0 0.0 0.01 0.04 0.01 94 1020.5
20260503081002 42 164 0.0 0.0 0.01 0.04 0.01 94 1020.4
20260503080502 42 164 0.0 0.0 0.01 0.04 0.01 94 1020.4
20260503072506 42 97 0.0 0.0 0.00 0.03 0.00 93 1020.2
20260503072004 42 97 0.0 1.7 0.00 0.03 0.00 93 1020.1
20260503071516 42 97 0.0 2.6 0.00 0.03 0.00 93 1020.0
20260503071003 42 97 0.9 2.6 0.00 0.03 0.00 93 1019.9
20260503070503 42 97 0.0 0.0 0.00 0.03 0.00 92 1019.9
20260503055002 42 97 0.9 1.7 0.00 0.03 0.00 91 1019.9
20260503054521 42 97 0.0 1.7 0.00 0.03 0.00 91 1019.9
20260503054005 42 97 0.0 1.7 0.00 0.03 0.00 91 1019.9
20260503053505 42 97 0.9 1.7 0.00 0.03 0.00 91 1019.8
20260503053015 42 97 0.0 0.9 0.00 0.03 0.00 91 1019.8
20260503052505 42 97 0.0 0.9 0.00 0.03 0.00 91 1019.8
20260503052006 42 97 0.0 1.7 0.00 0.03 0.00 91 1019.8
20260503051514 42 97 0.0 1.7 0.00 0.03 0.00 91 1019.8
20260503051008 42 97 0.9 1.7 0.00 0.03 0.00 90 1019.7
20260503050505 42 97 0.0 1.7 0.00 0.03 0.00 90 1019.7
20260503050007 42 97 0.0 0.0 0.00 0.03 0.00 90 1019.6
20260503045503 42 97 0.0 0.0 0.00 0.03 0.03 90 1019.6
20260503045002 42 97 0.0 0.0 0.00 0.03 0.03 90 1019.5
20260503044513 42 97 0.0 0.9 0.00 0.03 0.03 90 1019.5
20260503044004 42 97 0.0 0.9 0.00 0.03 0.03 89 1019.5
20260503043503 42 97 0.0 1.7 0.00 0.03 0.03 89 1019.4
20260503043008 42 97 0.0 1.7 0.00 0.03 0.03 89 1019.5
20260503042502 43 97 0.0 1.7 0.00 0.03 0.03 89 1019.5
20260503042002 43 97 0.0 1.7 0.00 0.03 0.03 89 1019.4
20260503041510 43 97 0.0 0.0 0.00 0.03 0.03 89 1019.4
20260503041003 43 97 0.0 0.9 0.00 0.03 0.03 89 1019.4
20260503040506 44 97 0.0 0.9 0.00 0.03 0.03 89 1019.3
20260503040014 44 97 0.0 1.7 0.00 0.03 0.03 89 1019.3
20260503035503 44 97 0.0 1.7 0.00 0.03 0.03 89 1019.3
20260503035003 44 97 0.0 1.7 0.00 0.03 0.03 89 1019.3
20260503034512 45 97 0.0 0.0 0.00 0.03 0.03 89 1019.3
20260503034002 45 97 0.0 0.0 0.00 0.03 0.03 89 1019.3
20260503033501 45 97 0.0 0.0 0.00 0.03 0.03 89 1019.3
20260503033013 45 97 0.0 0.0 0.00 0.03 0.03 89 1019.3
20260503032503 45 97 0.0 0.0 0.00 0.03 0.03 89 1019.3
20260503032005 45 97 0.0 0.0 0.00 0.03 0.03 89 1019.3
20260503031512 46 97 0.0 0.0 0.00 0.03 0.03 89 1019.4
20260503031003 46 97 0.0 0.0 0.00 0.03 0.03 89 1019.4
20260503030503 46 97 0.0 0.0 0.00 0.03 0.03 89 1019.3
20260503030013 46 97 0.0 0.0 0.00 0.03 0.03 89 1019.2
20260503025502 46 97 0.0 0.0 0.00 0.03 0.03 89 1019.2
20260503025002 45 97 0.0 0.0 0.00 0.03 0.03 89 1019.2
20260503024512 45 97 0.0 0.0 0.00 0.03 0.03 89 1019.1
20260503024003 45 97 0.0 0.0 0.00 0.03 0.03 88 1019.1
20260503023504 45 97 0.0 0.0 0.00 0.03 0.03 88 1019.1
20260503023013 45 97 0.0 0.0 0.00 0.03 0.03 88 1019.0
20260503022506 45 97 0.0 0.0 0.00 0.03 0.03 88 1019.0
20260503022003 45 97 0.0 0.0 0.00 0.03 0.03 88 1019.0
20260503021524 45 97 0.0 0.9 0.00 0.03 0.03 87 1019.0
20260503021006 45 97 0.0 0.9 0.00 0.03 0.03 87 1019.0
20260503020505 45 97 0.0 2.6 0.00 0.03 0.03 87 1019.0
20260503020030 45 97 0.0 5.2 0.00 0.03 0.03 87 1018.8
20260503015506 45 97 0.9 5.2 0.00 0.03 0.03 87 1018.8
20260503015007 46 102 1.7 3.5 0.00 0.03 0.03 87 1018.8
20260503014516 46 352 1.7 4.3 0.00 0.03 0.03 87 1018.9
20260503014005 46 5 2.6 4.3 0.00 0.03 0.03 87 1019.0
20260503013503 46 335 1.7 3.5 0.00 0.03 0.03 87 1019.0
20260503013016 47 317 1.7 4.3 0.00 0.03 0.03 86 1019.0
20260503012503 47 355 1.7 4.3 0.00 0.03 0.03 86 1018.9
20260503012005 47 315 0.9 3.5 0.01 0.03 0.03 86 1018.9
20260503011519 47 312 0.9 2.6 0.01 0.03 0.03 86 1018.9
20260503011005 47 311 0.0 2.6 0.02 0.03 0.03 86 1018.8
20260503010507 48 311 0.0 2.6 0.03 0.03 0.03 85 1018.8
20260503010017 48 311 0.0 0.0 0.03 0.03 0.03 85 1018.6
20260503005507 48 311 0.0 1.7 0.03 0.03 0.03 85 1018.6
20260503005004 48 311 0.0 1.7 0.03 0.03 0.03 84 1018.6
20260503004543 48 311 0.9 3.5 0.03 0.03 0.03 84 1018.6
20260503004007 48 311 0.9 4.3 0.03 0.03 0.03 83 1018.6